Burbank, CA

5:49 AM PDT on October 22, 2017 (GMT -0700)
Burbank-Glendale-Pasadena

Weather History for KBUR - September, 2013

Change the Weather History Date:

Thursday, September 26, 2013

  Actual Average Record
Temperature  
Mean Temperature 75 °F 71 °F  
Max Temperature 86 °F 84 °F 107 °F (1978)
Min Temperature 63 °F 58 °F 43 °F (1941)
Degree Days  
Heating Degree Days 0 0  
Month to date heating degree days 0 0  
Since 1 July heating degree days 0 0  
Cooling Degree Days 10 7  
Month to date cooling degree days 372 226  
Year to date cooling degree days 1801 1108  
Growing Degree Days 22 (Base 50)    
Moisture  
Dew Point 36 °F    
Average Humidity 37    
Maximum Humidity 65    
Minimum Humidity 9    
Precipitation  
Precipitation T in 0.01 in 0.62 in (1982)
Month to date precipitation T 0.17  
Year to date precipitation 2.61 12.81  
Since 1 July precipitation 0.01  
Sea Level Pressure  
Sea Level Pressure 29.75 in    
Wind  
Wind Speed 8 mph (NW)    
Max Wind Speed 25 mph    
Max Gust Speed 35 mph    
Visibility 10 miles    
Events      
T = Trace of Precipitation, MM = Missing Value Source: NWS Daily Summary

Daily Weather History Graph

Daily Weather History Graph

Search for Another Location

Airport or City:

Trip Planner

Search our weather history database for the weather conditions in past years. The results will help you decide how hot, cold, wet, or windy it might be!

Date:

Astronomy

Sep. 26, 2013 Rise Set
Actual Time 6:44 AM PDT 6:44 PM PDT
Civil Twilight 6:19 AM PDT 7:09 PM PDT
Nautical Twilight 5:50 AM PDT 7:38 PM PDT
Astronomical Twilight 5:21 AM PDT 8:07 PM PDT
Moon 11:59 PM PDT (9/26) 1:27 PM PDT (9/26)
Length of Visible Light 12h 49m
Length of Day
11h 59m
Waning Gibbous, 53% of the Moon is Illuminated
Sep 26
Waning Gibbous
Sep 26
Last Quarter
Oct 4
New
Oct 11
First Quarter
Oct 18
Full

Hourly Weather History & Observations

Time (PDT) Temp. Dew Point Humidity Pressure Visibility Wind Dir Wind Speed Gust Speed Precip Events Conditions
12:53 AM 64.0 °F 48.9 °F 58% 29.70 in 10.0 mi SE 4.6 mph - N/A   Scattered Clouds
1:53 AM 64.0 °F 48.9 °F 58% 29.70 in 10.0 mi Calm Calm - N/A   Clear
2:36 AM 62.6 °F 48.2 °F 59% 29.73 in 10.0 mi Calm Calm - N/A   Mostly Cloudy
2:53 AM 63.0 °F 48.9 °F 60% 29.70 in 10.0 mi Calm Calm - N/A   Overcast
3:15 AM 64.4 °F 50.0 °F 59% 29.74 in 10.0 mi Calm Calm - N/A   Overcast
3:53 AM 63.0 °F 50.0 °F 63% 29.70 in 10.0 mi Calm Calm - N/A   Mostly Cloudy
4:53 AM 64.0 °F 48.9 °F 58% 29.70 in 10.0 mi Calm Calm - N/A   Mostly Cloudy
5:53 AM 63.0 °F 48.9 °F 60% 29.71 in 10.0 mi Calm Calm - N/A   Overcast
6:53 AM 63.0 °F 50.0 °F 63% 29.73 in 10.0 mi Calm Calm - N/A   Mostly Cloudy
7:53 AM 64.9 °F 50.0 °F 58% 29.75 in 10.0 mi Calm Calm - N/A   Scattered Clouds
8:53 AM 69.1 °F 35.1 °F 29% 29.76 in 10.0 mi NNW 16.1 mph 21.9 mph N/A   Clear
9:53 AM 70.0 °F 33.1 °F 26% 29.77 in 10.0 mi NNW 20.7 mph 29.9 mph N/A   Clear
10:53 AM 71.1 °F 32.0 °F 24% 29.78 in 10.0 mi NNW 17.3 mph 28.8 mph N/A   Clear
11:53 AM 73.0 °F 30.9 °F 21% 29.76 in 10.0 mi WNW 15.0 mph 20.7 mph 0.00 in   Clear
12:53 PM 75.0 °F 28.9 °F 18% 29.75 in 10.0 mi NNW 12.7 mph 21.9 mph N/A   Clear
1:53 PM 78.1 °F 25.0 °F 14% 29.73 in 10.0 mi WNW 12.7 mph 17.3 mph N/A   Clear
2:53 PM 80.1 °F 21.0 °F 11% 29.72 in 10.0 mi West 13.8 mph 21.9 mph N/A   Clear
3:53 PM 81.0 °F 18.0 °F 10% 29.72 in 10.0 mi NNW 15.0 mph 24.2 mph N/A   Clear
4:53 PM 78.1 °F 21.0 °F 12% 29.73 in 10.0 mi WNW 16.1 mph 25.3 mph N/A   Clear
5:53 PM 77.0 °F 25.0 °F 15% 29.75 in 10.0 mi WNW 9.2 mph 18.4 mph N/A   Clear
6:53 PM 73.0 °F 28.9 °F 20% 29.78 in 10.0 mi NNW 10.4 mph - N/A   Clear
7:53 PM 71.1 °F 28.0 °F 20% 29.81 in 10.0 mi North 12.7 mph - N/A   Clear
8:53 PM 69.1 °F 28.0 °F 22% 29.83 in 10.0 mi North 4.6 mph - N/A   Clear
9:53 PM 69.1 °F 26.1 °F 20% 29.84 in 10.0 mi Variable 3.5 mph - N/A   Clear
10:53 PM 68.0 °F 26.1 °F 21% 29.86 in 10.0 mi WNW 5.8 mph - N/A   Clear
11:53 PM 68.0 °F 26.1 °F 21% 29.85 in 10.0 mi WNW 5.8 mph - N/A   Clear